| time (UTC) | temp C | wind direction | speed KPH | gust KPH | rain 1hr cm | rain 24hr cm | rain mn cm | humidity % | barometer mb |
| 20260503214805 | 16 | 176 | 8.0 | 14.5 | 0.00 | 0.00 | 0.00 | 82 | 1036.1 |
| 20260503214305 | 16 | 162 | 9.7 | 14.5 | 0.00 | 0.00 | 0.00 | 82 | 1036.1 |
| 20260503211805 | 15 | 155 | 8.0 | 12.9 | 0.00 | 0.00 | 0.00 | 86 | 1036.2 |
| 20260503211304 | 14 | 186 | 8.0 | 12.9 | 0.00 | 0.00 | 0.00 | 87 | 1036.3 |
| 20260503210805 | 14 | 185 | 9.7 | 12.9 | 0.00 | 0.00 | 0.00 | 87 | 1036.3 |
| 20260503210305 | 14 | 181 | 8.0 | 11.3 | 0.00 | 0.00 | 0.00 | 87 | 1036.3 |
| 20260503204805 | 13 | 183 | 8.0 | 12.9 | 0.00 | 0.00 | 0.00 | 88 | 1036.4 |
| 20260503202805 | 13 | 160 | 9.7 | 12.9 | 0.00 | 0.00 | 0.00 | 89 | 1036.4 |
| 20260503200805 | 13 | 154 | 6.4 | 11.3 | 0.00 | 0.00 | 0.00 | 90 | 1036.4 |
| 20260503200304 | 13 | 158 | 8.0 | 12.9 | 0.00 | 0.00 | 0.00 | 90 | 1036.3 |
| 20260503195804 | 13 | 162 | 6.4 | 9.7 | 0.00 | 0.00 | 0.00 | 90 | 1036.3 |
| 20260503194305 | 13 | 178 | 9.7 | 12.9 | 0.00 | 0.00 | 0.00 | 89 | 1036.1 |
| 20260503192804 | 13 | 172 | 9.7 | 14.5 | 0.00 | 0.00 | 0.00 | 90 | 1036.0 |
| 20260503191305 | 12 | 170 | 9.7 | 12.9 | 0.00 | 0.00 | 0.00 | 89 | 1035.9 |
| 20260503185305 | 12 | 184 | 8.0 | 12.9 | 0.00 | 0.00 | 0.00 | 88 | 1035.7 |
| 20260503184804 | 12 | 172 | 9.7 | 11.3 | 0.00 | 0.00 | 0.00 | 89 | 1035.6 |
| 20260503182804 | 12 | 167 | 8.0 | 9.7 | 0.00 | 0.00 | 0.00 | 89 | 1035.4 |
| 20260503182305 | 12 | 167 | 4.8 | 11.3 | 0.00 | 0.00 | 0.00 | 89 | 1035.3 |
| 20260503180805 | 12 | 167 | 8.0 | 12.9 | 0.00 | 0.00 | 0.00 | 89 | 1035.3 |
| 20260503175804 | 12 | 161 | 8.0 | 11.3 | 0.00 | 0.00 | 0.00 | 89 | 1035.3 |
| 20260503175305 | 12 | 161 | 9.7 | 11.3 | 0.00 | 0.00 | 0.00 | 89 | 1035.3 |
| 20260503173304 | 12 | 156 | 8.0 | 11.3 | 0.00 | 0.00 | 0.00 | 89 | 1035.2 |
| 20260503172305 | 12 | 156 | 8.0 | 11.3 | 0.00 | 0.00 | 0.00 | 90 | 1035.1 |
| 20260503171804 | 12 | 155 | 8.0 | 11.3 | 0.00 | 0.00 | 0.00 | 90 | 1035.1 |
| 20260503171304 | 12 | 154 | 6.4 | 9.7 | 0.00 | 0.00 | 0.00 | 90 | 1035.1 |
| 20260503170304 | 12 | 155 | 8.0 | 11.3 | 0.00 | 0.00 | 0.00 | 90 | 1035.0 |
| 20260503150805 | 13 | 181 | 4.8 | 4.8 | 0.00 | 0.00 | 0.00 | 88 | 1035.4 |
| 20260503130804 | 13 | 154 | 8.0 | 11.3 | 0.00 | 0.00 | 0.00 | 89 | 1036.1 |
| 20260503130304 | 13 | 153 | 8.0 | 9.7 | 0.00 | 0.00 | 0.00 | 89 | 1036.1 |
| 20260503110805 | 13 | 142 | 3.2 | 4.8 | 0.00 | 0.00 | 0.00 | 88 | 1036.1 |
| 20260503110304 | 13 | 142 | 4.8 | 8.0 | 0.00 | 0.00 | 0.00 | 88 | 1036.0 |
| 20260503080304 | 15 | 161 | 4.8 | 8.0 | 0.00 | 0.00 | 0.00 | 81 | 1035.2 |
| 20260503072806 | 14 | 57 | 0.0 | 0.0 | 0.00 | 0.00 | 0.00 | 78 | 1034.8 |
| 20260503070805 | 15 | 35 | 6.4 | 9.7 | 0.00 | 0.00 | 0.00 | 79 | 1034.6 |
| 20260503070304 | 15 | 33 | 4.8 | 8.0 | 0.00 | 0.00 | 0.00 | 79 | 1034.6 |
| 20260503052804 | 15 | 58 | 4.8 | 8.0 | 0.00 | 0.00 | 0.00 | 75 | 1034.3 |
| 20260503051805 | 15 | 58 | 8.0 | 11.3 | 0.00 | 0.00 | 0.00 | 75 | 1034.2 |
| 20260503050805 | 15 | 58 | 9.7 | 12.9 | 0.00 | 0.00 | 0.00 | 75 | 1034.2 |
| 20260503045305 | 16 | 58 | 6.4 | 11.3 | 0.00 | 0.00 | 0.00 | 75 | 1034.3 |
| 20260503044305 | 16 | 59 | 8.0 | 11.3 | 0.00 | 0.00 | 0.00 | 74 | 1034.3 |
| 20260503043805 | 16 | 59 | 6.4 | 11.3 | 0.00 | 0.00 | 0.00 | 74 | 1034.3 |
| 20260503043305 | 16 | 59 | 8.0 | 11.3 | 0.00 | 0.00 | 0.00 | 74 | 1034.3 |
| 20260503041805 | 16 | 81 | 3.2 | 9.7 | 0.00 | 0.00 | 0.00 | 73 | 1034.3 |
| 20260503041305 | 16 | 81 | 4.8 | 12.9 | 0.00 | 0.00 | 0.00 | 74 | 1034.3 |
| 20260503040304 | 16 | 83 | 8.0 | 12.9 | 0.00 | 0.00 | 0.00 | 73 | 1034.3 |
| 20260503035305 | 16 | 64 | 9.7 | 12.9 | 0.00 | 0.00 | 0.00 | 71 | 1034.3 |
| 20260503034804 | 16 | 75 | 6.4 | 12.9 | 0.00 | 0.00 | 0.00 | 73 | 1034.3 |
| 20260503033305 | 16 | 56 | 6.4 | 11.3 | 0.00 | 0.00 | 0.00 | 73 | 1034.3 |
| 20260503032804 | 16 | 51 | 8.0 | 12.9 | 0.00 | 0.00 | 0.00 | 73 | 1034.3 |
| 20260503031804 | 17 | 65 | 6.4 | 16.1 | 0.00 | 0.00 | 0.00 | 71 | 1034.3 |
| 20260503031305 | 17 | 59 | 12.9 | 19.3 | 0.00 | 0.00 | 0.00 | 71 | 1034.3 |
| 20260503030805 | 17 | 55 | 8.0 | 11.3 | 0.00 | 0.00 | 0.00 | 73 | 1034.2 |
| 20260503030305 | 17 | 57 | 8.0 | 16.1 | 0.00 | 0.00 | 0.00 | 73 | 1034.3 |
| 20260503024805 | 17 | 61 | 9.7 | 16.1 | 0.00 | 0.00 | 0.00 | 72 | 1034.2 |
| 20260503024305 | 17 | 64 | 8.0 | 16.1 | 0.00 | 0.00 | 0.00 | 72 | 1034.2 |
| 20260503023805 | 17 | 61 | 4.8 | 14.5 | 0.00 | 0.00 | 0.00 | 73 | 1034.3 |
| 20260503023305 | 17 | 74 | 11.3 | 16.1 | 0.00 | 0.00 | 0.00 | 73 | 1034.3 |
| 20260503022805 | 17 | 76 | 8.0 | 12.9 | 0.00 | 0.00 | 0.00 | 72 | 1034.3 |
| 20260503021804 | 17 | 82 | 12.9 | 19.3 | 0.00 | 0.00 | 0.00 | 72 | 1034.4 |
| 20260503021305 | 17 | 86 | 11.3 | 22.5 | 0.00 | 0.00 | 0.00 | 72 | 1034.4 |
| 20260503015804 | 17 | 60 | 11.3 | 19.3 | 0.00 | 0.00 | 0.00 | 73 | 1034.4 |
| 20260503014805 | 17 | 54 | 14.5 | 20.9 | 0.00 | 0.00 | 0.00 | 71 | 1034.5 |
| 20260503014305 | 17 | 54 | 14.5 | 20.9 | 0.00 | 0.00 | 0.00 | 71 | 1034.6 |
| 20260503011804 | 17 | 61 | 11.3 | 16.1 | 0.00 | 0.00 | 0.00 | 71 | 1034.8 |
| 20260503010804 | 17 | 63 | 11.3 | 19.3 | 0.00 | 0.00 | 0.00 | 70 | 1034.9 |
| 20260503010305 | 18 | 61 | 11.3 | 19.3 | 0.00 | 0.00 | 0.00 | 71 | 1035.0 |
| 20260503005804 | 17 | 59 | 8.0 | 19.3 | 0.00 | 0.00 | 0.00 | 71 | 1035.1 |
| 20260503005305 | 17 | 71 | 11.3 | 19.3 | 0.00 | 0.00 | 0.00 | 72 | 1035.2 |
| 20260503004304 | 18 | 72 | 12.9 | 19.3 | 0.00 | 0.00 | 0.00 | 71 | 1035.3 |
| 20260503003805 | 18 | 76 | 11.3 | 19.3 | 0.00 | 0.00 | 0.00 | 71 | 1035.3 |
| 20260503002805 | 18 | 81 | 8.0 | 12.9 | 0.00 | 0.00 | 0.00 | 73 | 1035.4 |
| 20260503001805 | 18 | 87 | 8.0 | 16.1 | 0.00 | 0.00 | 0.00 | 73 | 1035.5 |
| 20260503001305 | 18 | 92 | 12.9 | 19.3 | 0.00 | 0.00 | 0.00 | 72 | 1035.6 |
| 20260503000307 | 17 | 115 | 3.2 | 9.7 | 0.00 | 0.00 | 0.00 | 78 | 1035.7 |
| 20260502235305 | 17 | 88 | 4.8 | 14.5 | 0.00 | 0.00 | 0.00 | 76 | 1035.9 |
| 20260502233805 | 17 | 133 | 4.8 | 11.3 | 0.00 | 0.00 | 0.00 | 77 | 1036.1 |
| 20260502233305 | 17 | 112 | 6.4 | 12.9 | 0.00 | 0.00 | 0.00 | 77 | 1036.2 |
| 20260502232805 | 17 | 140 | 1.6 | 12.9 | 0.00 | 0.00 | 0.00 | 76 | 1036.3 |
| 20260502231804 | 17 | 108 | 14.5 | 16.1 | 0.00 | 0.00 | 0.00 | 77 | 1036.4 |
| 20260502231306 | 17 | 151 | 8.0 | 14.5 | 0.00 | 0.00 | 0.00 | 74 | 1036.4 |
| 20260502230804 | 17 | 136 | 8.0 | 16.1 | 0.00 | 0.00 | 0.00 | 75 | 1036.4 |
| 20260502230305 | 17 | 146 | 8.0 | 11.3 | 0.00 | 0.00 | 0.00 | 77 | 1036.4 |
| 20260502224305 | 18 | 116 | 9.7 | 12.9 | 0.00 | 0.00 | 0.00 | 76 | 1036.5 |
| 20260502223805 | 17 | 127 | 9.7 | 12.9 | 0.00 | 0.00 | 0.00 | 76 | 1036.6 |
| 20260502222305 | 18 | 137 | 6.4 | 11.3 | 0.00 | 0.00 | 0.00 | 75 | 1036.6 |
| 20260502221805 | 17 | 127 | 8.0 | 14.5 | 0.00 | 0.00 | 0.00 | 79 | 1036.6 |
| 20260502221305 | 17 | 149 | 8.0 | 12.9 | 0.00 | 0.00 | 0.00 | 78 | 1036.6 |
| 20260502220805 | 16 | 163 | 9.7 | 12.9 | 0.00 | 0.00 | 0.00 | 79 | 1036.6 |
| 20260502220304 | 16 | 151 | 4.8 | 11.3 | 0.00 | 0.00 | 0.00 | 78 | 1036.6 |
| 20260502215804 | 17 | 141 | 4.8 | 9.7 | 0.00 | 0.00 | 0.00 | 78 | 1036.6 |
| 20260502215305 | 17 | 144 | 8.0 | 12.9 | 0.00 | 0.00 | 0.00 | 80 | 1036.7 |